NO9B Weather Reports


time (UTC)temp
C
wind
direction
speed
KPH
gust
KPH
rain 1hr
cm
rain 24hr
cm
rain mn
cm
humidity
%
barometer
mb
20260503232312 20 258 6.4 14.5 0.00 0.03 0.03 38 1005.1
20260503231810 20 256 3.2 9.7 0.00 0.03 0.03 40 1004.9
20260503231306 20 212 6.4 8.0 0.00 0.03 0.03 39 1005.1
20260503230802 20 240 8.0 8.0 0.00 0.03 0.03 39 1005.2
20260503230300 20 211 4.8 9.7 0.00 0.03 0.03 39 1005.2
20260503225757 20 242 4.8 20.9 0.00 0.03 0.03 39 1005.2
20260503225252 20 191 6.4 9.7 0.00 0.03 0.03 40 1005.1
20260503224749 20 208 6.4 9.7 0.00 0.03 0.03 40 1005.1
20260503224247 20 229 4.8 11.3 0.00 0.03 0.03 39 1005.2
20260503223744 20 285 9.7 11.3 0.00 0.03 0.03 39 1005.3
20260503223242 20 234 6.4 16.1 0.00 0.03 0.03 37 1005.4
20260503222738 20 221 4.8 11.3 0.00 0.03 0.03 38 1005.3
20260503222236 20 291 4.8 9.7 0.00 0.03 0.03 38 1005.4
20260503221734 20 259 3.2 12.9 0.00 0.03 0.03 38 1005.5
20260503221231 20 202 8.0 19.3 0.00 0.03 0.03 39 1005.4
20260503220728 20 278 8.0 20.9 0.00 0.03 0.03 39 1005.6
20260503220225 20 265 8.0 9.7 0.00 0.03 0.03 39 1005.5
20260503215721 20 275 9.7 16.1 0.00 0.03 0.03 38 1005.6
20260503215219 19 228 3.2 20.9 0.00 0.03 0.03 40 1005.6
20260503214717 20 219 11.3 22.5 0.00 0.03 0.03 38 1005.7
20260503214213 20 259 9.7 17.7 0.00 0.03 0.03 37 1005.6
20260503213711 20 263 4.8 17.7 0.00 0.03 0.03 39 1005.7
20260503213208 20 196 8.0 16.1 0.00 0.03 0.03 38 1005.8
20260503212705 20 282 11.3 12.9 0.00 0.03 0.03 38 1006.1
20260503212202 20 221 11.3 19.3 0.00 0.03 0.03 38 1005.8
20260503211700 20 208 9.7 11.3 0.00 0.03 0.03 37 1005.8
20260503211155 20 260 11.3 12.9 0.00 0.03 0.03 37 1005.8
20260503210652 20 206 9.7 9.7 0.00 0.03 0.03 38 1006.0
20260503210149 20 282 6.4 16.1 0.00 0.03 0.03 40 1006.0
20260503205644 19 252 6.4 11.3 0.00 0.03 0.03 40 1006.1
20260503205141 19 273 8.0 17.7 0.00 0.03 0.03 42 1006.2
20260503204637 19 241 11.3 16.1 0.00 0.03 0.03 41 1006.2
20260503204135 19 259 6.4 17.7 0.00 0.03 0.03 42 1006.3
20260503203632 19 224 3.2 14.5 0.00 0.03 0.03 43 1006.5
20260503203130 18 212 9.7 14.5 0.00 0.03 0.03 43 1006.8
20260503202627 18 284 8.0 17.7 0.00 0.03 0.03 45 1006.9
20260503202125 18 154 14.5 14.5 0.00 0.03 0.03 44 1007.1
20260503201623 18 228 6.4 14.5 0.00 0.03 0.03 45 1007.1
20260503201120 18 249 4.8 12.9 0.00 0.03 0.03 44 1007.4
20260503200616 18 214 14.5 17.7 0.00 0.03 0.03 43 1007.5
20260503200112 18 217 11.3 12.9 0.00 0.03 0.03 43 1007.5
20260503195609 18 209 6.4 22.5 0.00 0.03 0.03 43 1007.5
20260503195106 18 231 11.3 24.1 0.00 0.03 0.03 42 1007.5
20260503194603 18 257 14.5 24.1 0.00 0.03 0.03 41 1007.5
20260503194058 18 231 12.9 17.7 0.00 0.03 0.03 40 1007.6
20260503193555 18 190 20.9 25.7 0.00 0.03 0.03 38 1007.7
20260503193050 18 276 6.4 17.7 0.00 0.03 0.03 39 1007.6
20260503192547 18 231 16.1 19.3 0.00 0.03 0.03 39 1007.4
20260503192043 18 217 8.0 16.1 0.00 0.03 0.03 39 1007.6
20260503191539 18 279 12.9 24.1 0.00 0.03 0.03 39 1007.6
20260503191036 18 156 8.0 16.1 0.00 0.03 0.03 38 1007.6
20260503190533 18 252 6.4 19.3 0.00 0.03 0.03 37 1007.9
20260503190031 18 206 11.3 20.9 0.00 0.03 0.03 39 1007.8
20260503185527 18 241 9.7 17.7 0.00 0.03 0.03 37 1007.6
20260503185027 18 233 9.7 16.1 0.00 0.03 0.03 38 1007.8
20260503184523 18 202 6.4 12.9 0.00 0.03 0.03 41 1007.8
20260503184020 18 254 16.1 19.3 0.00 0.03 0.03 39 1008.0
20260503183516 18 257 8.0 11.3 0.00 0.03 0.03 41 1008.1
20260503183013 17 257 8.0 14.5 0.00 0.03 0.03 43 1008.1
20260503182512 17 248 11.3 16.1 0.00 0.03 0.03 43 1008.3
20260503182009 17 292 12.9 12.9 0.00 0.03 0.03 44 1008.3
20260503181506 17 186 8.0 12.9 0.00 0.03 0.03 43 1008.3
20260503181002 16 273 9.7 17.7 0.00 0.03 0.03 45 1008.5
20260503180500 16 241 6.4 12.9 0.00 0.03 0.03 48 1008.7
20260503175957 17 240 8.0 12.9 0.00 0.03 0.03 49 1008.8
20260503175455 16 249 3.2 11.3 0.00 0.03 0.03 47 1008.7
20260503174950 16 257 3.2 14.5 0.00 0.03 0.03 47 1008.9
20260503174449 16 212 4.8 12.9 0.00 0.03 0.03 51 1009.2
20260503173944 16 236 4.8 17.7 0.00 0.03 0.03 48 1009.1
20260503173440 15 289 6.4 12.9 0.00 0.03 0.03 51 1009.1
20260503172937 15 210 11.3 17.7 0.00 0.03 0.03 50 1009.3
20260503172434 15 149 4.8 11.3 0.00 0.03 0.03 51 1009.2
20260503171931 15 245 4.8 20.9 0.00 0.03 0.03 50 1009.3
20260503171427 15 220 8.0 12.9 0.00 0.03 0.03 51 1009.5
20260503170925 15 261 4.8 12.9 0.00 0.03 0.03 53 1009.6
20260503170421 14 267 3.2 8.0 0.00 0.03 0.03 56 1009.7
20260503150813 14 243 4.8 12.9 0.00 0.00 0.00 50 1011.1
20260503150309 13 254 6.4 16.1 0.00 0.00 0.00 51 1011.4
20260503140234 12 196 6.4 16.1 0.00 0.00 0.00 51 1011.6
20260503131203 11 287 6.4 11.3 0.00 0.00 0.00 52 1012.0
20260503130701 10 232 6.4 17.7 0.00 0.00 0.00 52 1012.0
20260503130158 10 216 11.3 17.7 0.00 0.00 0.00 53 1011.9
20260503120124 10 258 6.4 14.5 0.00 0.00 0.00 50 1012.1
20260503110551 9 242 3.2 11.3 0.00 0.00 0.00 50 1012.1
20260503090438 8 255 6.4 11.3 0.00 0.00 0.00 47 1012.5
20260503081404 9 252 6.4 11.3 0.00 0.00 0.00 47 1013.2
20260503080901 9 271 6.4 9.7 0.00 0.00 0.00 46 1013.2
20260503080358 9 219 6.4 8.0 0.00 0.00 0.00 46 1013.0
20260503072835 9 248 4.8 12.9 0.00 0.00 0.00 47 1013.4
20260503072332 9 249 4.8 6.4 0.00 0.00 0.00 47 1013.3
20260503071828 8 255 6.4 9.7 0.00 0.00 0.00 46 1013.5
20260503071325 9 260 6.4 9.7 0.00 0.00 0.00 46 1013.4
20260503070821 8 215 4.8 9.7 0.00 0.00 0.00 47 1013.4
20260503070320 8 251 3.2 11.3 0.00 0.00 0.00 48 1013.3
20260503060250 7 274 3.2 6.4 0.00 0.00 0.00 55 1014.1
20260503054737 7 216 4.8 6.4 0.00 0.00 0.00 55 1014.1
20260503054234 7 236 3.2 6.4 0.00 0.00 0.00 54 1014.3
20260503053732 7 253 3.2 4.8 0.00 0.00 0.00 53 1014.3
20260503053231 7 251 3.2 8.0 0.00 0.00 0.00 53 1014.3
20260503052726 7 232 6.4 8.0 0.00 0.00 0.00 54 1014.4
20260503052223 7 273 3.2 6.4 0.00 0.00 0.00 56 1014.3
20260503051718 6 267 6.4 6.4 0.00 0.00 0.00 58 1014.5
20260503051217 6 232 4.8 6.4 0.00 0.00 0.00 60 1014.3
20260503050713 6 237 4.8 6.4 0.00 0.00 0.00 60 1014.4
20260503050209 6 272 1.6 4.8 0.00 0.00 0.00 61 1014.6
20260503045707 6 223 4.8 4.8 0.00 0.00 0.00 62 1014.6
20260503045204 6 210 3.2 4.8 0.00 0.00 0.00 64 1014.4
20260503044700 5 235 3.2 4.8 0.00 0.00 0.00 65 1014.6
20260503044158 5 225 4.8 4.8 0.00 0.00 0.00 66 1014.5
20260503043654 5 244 3.2 4.8 0.00 0.00 0.00 68 1014.6
20260503043152 5 224 3.2 4.8 0.00 0.00 0.00 69 1014.6
20260503042648 5 226 3.2 4.8 0.00 0.00 0.00 70 1014.6
20260503042144 5 232 3.2 4.8 0.00 0.00 0.00 73 1014.7
20260503041641 5 247 1.6 4.8 0.00 0.00 0.00 74 1014.7
20260503041139 4 240 3.2 4.8 0.00 0.00 0.00 75 1014.8
20260503040636 4 221 1.6 3.2 0.00 0.00 0.00 77 1014.7
20260503040133 4 222 3.2 3.2 0.00 0.00 0.00 77 1015.0
20260503035630 5 222 3.2 3.2 0.00 0.00 0.00 76 1014.8
20260503035128 5 215 3.2 3.2 0.00 0.00 0.00 75 1014.9
20260503034625 5 225 3.2 3.2 0.00 0.00 0.00 75 1014.8
20260503034122 5 221 3.2 4.8 0.00 0.00 0.00 74 1014.8
20260503033619 5 220 3.2 3.2 0.00 0.00 0.00 74 1015.0
20260503033117 5 276 0.0 4.8 0.00 0.00 0.00 74 1015.0
20260503032615 5 221 1.6 4.8 0.00 0.00 0.00 73 1015.1
20260503032113 5 227 3.2 3.2 0.00 0.00 0.00 73 1015.0
20260503031610 5 222 4.8 4.8 0.00 0.00 0.00 72 1015.0
20260503031108 5 229 3.2 4.8 0.00 0.00 0.00 72 1015.1
20260503030603 5 237 3.2 3.2 0.00 0.00 0.00 72 1015.2
20260503030100 5 228 3.2 4.8 0.00 0.00 0.00 71 1015.2
20260503025557 5 248 3.2 3.2 0.00 0.00 0.00 73 1015.4
20260503025055 5 262 1.6 4.8 0.00 0.00 0.00 71 1015.5
20260503024550 5 263 1.6 3.2 0.00 0.00 0.00 72 1015.6
20260503024048 5 233 3.2 3.2 0.00 0.00 0.00 72 1015.3
20260503023544 5 237 1.6 3.2 0.00 0.00 0.00 70 1015.5
20260503023042 5 249 1.6 4.8 0.00 0.00 0.00 71 1015.4
20260503022538 5 276 1.6 3.2 0.00 0.00 0.00 71 1015.4
20260503022033 5 240 3.2 3.2 0.00 0.00 0.00 70 1015.3
20260503021530 6 226 1.6 3.2 0.00 0.00 0.00 70 1015.5
20260503021027 6 269 3.2 3.2 0.00 0.00 0.00 68 1015.5
20260503020524 6 256 3.2 3.2 0.00 0.00 0.00 68 1015.4
20260503020021 6 261 1.6 3.2 0.00 0.00 0.00 66 1015.4
20260503015518 6 279 0.0 3.2 0.00 0.00 0.00 66 1015.3
20260503015015 6 247 0.0 3.2 0.00 0.00 0.00 65 1015.2
20260503014511 6 254 1.6 3.2 0.00 0.00 0.00 64 1015.3
20260503014009 7 247 1.6 3.2 0.00 0.00 0.00 64 1015.2
20260503013506 7 305 1.6 3.2 0.00 0.00 0.00 62 1015.4
20260503013003 7 280 1.6 3.2 0.00 0.00 0.00 62 1015.3
20260503012501 7 274 1.6 4.8 0.00 0.00 0.00 61 1015.1
20260503011956 7 259 1.6 4.8 0.00 0.00 0.00 60 1015.0
20260503011454 7 282 1.6 3.2 0.00 0.00 0.00 59 1015.0
20260503010950 8 244 3.2 3.2 0.00 0.00 0.00 58 1015.0
20260503010447 8 338 3.2 3.2 0.00 0.00 0.00 57 1015.1
20260503005944 8 221 4.8 6.4 0.00 0.00 0.00 56 1015.2
20260503005442 8 271 0.0 3.2 0.00 0.00 0.00 55 1015.2
20260503004938 8 289 1.6 3.2 0.00 0.00 0.00 54 1015.1
20260503004435 8 257 3.2 4.8 0.00 0.00 0.00 54 1015.2
20260503003933 9 246 3.2 3.2 0.00 0.00 0.00 53 1015.3
20260503003429 9 240 3.2 4.8 0.00 0.00 0.00 52 1015.3
20260503002927 9 255 0.0 4.8 0.00 0.00 0.00 52 1015.2
20260503002424 10 252 1.6 4.8 0.00 0.00 0.00 51 1015.3
20260503001920 10 304 3.2 3.2 0.00 0.00 0.00 50 1015.4
20260503001416 10 312 3.2 4.8 0.00 0.00 0.00 50 1015.4
20260503000915 10 248 3.2 4.8 0.00 0.00 0.00 50 1015.3
20260503000411 10 319 3.2 6.4 0.00 0.00 0.00 50 1015.5
20260502235908 10 196 4.8 6.4 0.00 0.00 0.00 49 1015.4
20260502235405 10 210 3.2 4.8 0.00 0.00 0.00 48 1015.4
20260502234903 10 274 3.2 4.8 0.00 0.00 0.00 48 1015.5
20260502234359 10 328 4.8 6.4 0.00 0.00 0.00 48 1015.4
20260502233856 10 260 3.2 3.2 0.00 0.00 0.00 47 1015.5
20260502233352 10 345 3.2 4.8 0.00 0.00 0.00 48 1015.6
20260502232849 10 243 3.2 6.4 0.00 0.00 0.00 47 1015.7